This demonstration page uses our WeatherBlox Daily Observations layout. Learn more.

Left ArrowRight Arrow

41.12389, -100.76542

Hourly Observations for August 2, 2018

Temp ( °F °C ) Dew Point ( °F °C ) Humidity (%) Winds ( mph kmh ) Pressure ( in mb ) Visibility ( mi km ) Precip ( " mm )
12:53 am 00:53 Clear 62 16.7 61 16.1 96 96 ESE 7 11 29.98 1015 10 16 0.00 0.00
1:53 am 01:53 Clear 62 16.7 62 16.7 100 100 SE 6 9 29.97 1015 10 16 0.00 0.00
2:53 am 02:53 Clear 62 16.7 62 16.7 100 100 SE 7 11 29.95 1014 9 14 0.00 0.00
3:53 am 03:53 Clear 62 16.7 62 16.7 100 100 SE 10 17 29.94 1014 10 16 0.00 0.00
4:53 am 04:53 Clear 61 16.1 61 16.1 100 100 SE 8 13 29.94 1014 8 13 0.00 0.00
5:53 am 05:53 Clear 61 16.1 61 16.1 100 100 SSE 6 9 29.94 1014 9 14 0.00 0.00
6:53 am 06:53 Sunny 62 16.7 61 16.1 96 96 SSE 5 7 29.95 1014 10 16 0.00 0.00
7:53 am 07:53 Sunny 66 18.9 64 17.8 93 93 Calm 29.95 1014 10 16 0.00 0.00
8:53 am 08:53 Sunny 72 22.2 66 18.9 82 82 SSW 7 11 29.95 1014 10 16 0.00 0.00
9:53 am 09:53 Sunny 78 25.6 66 18.9 67 67 WSW 8 13 29.94 1014 10 16 0.00 0.00
10:53 am 10:53 Sunny 83 28.3 68 20 61 61 SW 8 13 29.93 1013 10 16 0.00 0.00
11:53 am 11:53 Sunny 88 31.1 67 19.4 50 50 SW 7 11 29.91 1013 10 16 0.00 0.00
12:53 pm 12:53 Sunny 92 33.3 67 19.4 44 44 SW 15 24 29.89 1012 10 16 0.00 0.00
1:53 pm 13:53 Sunny 92 33.3 65 18.3 41 41 SW 12 19 29.89 1012 10 16 0.00 0.00
2:53 pm 14:53 Sunny 92 33.3 66 18.9 43 43 SSW 10 17 29.88 1012 10 16 0.00 0.00
3:53 pm 15:53 Sunny 92 33.3 66 18.9 43 43 S 13 20 29.86 1011 10 16 0.00 0.00
4:53 pm 16:53 Sunny 92 33.3 66 18.9 43 43 S 10 17 29.85 1011 10 16 0.00 0.00
5:53 pm 17:53 Sunny 91 32.8 67 19.4 45 45 SSW 13 20 29.85 1011 10 16 0.00 0.00
6:53 pm 18:53 Sunny 90 32.2 66 18.9 45 45 S 12 19 29.84 1011 10 16 0.00 0.00
7:53 pm 19:53 Sunny 85 29.4 66 18.9 53 53 SE 8 13 29.83 1010 10 16 0.00 0.00
8:53 pm 20:53 Sunny 80 26.7 65 18.3 60 60 SE 10 17 29.83 1010 10 16 0.00 0.00
9:53 pm 21:53 Clear 76 24.4 64 17.8 67 67 SE 10 17 29.85 1011 10 16 0.00 0.00
10:53 pm 22:53 Clear 73 22.8 64 17.8 74 74 SE 6 9 29.86 1011 10 16 0.00 0.00
11:53 pm 23:53 Clear 77 25 64 17.8 64 64 S 7 11 29.85 1011 10 16 0.00 0.00

Powered by AerisWeather